Location: Winthrop
(48.4780°N, 120.1850°W)
Time: 00:58:30
(UTC-07:00)

S-56A Canister/Altair - Pass Details

Date: 01 June 2023
Orbit: 640 x 2489 km, 38.9° (Epoch: 29 September)

Event Time Altitude Azimuth Distance (km) Brightness Sun altitude
Rises 23:13:22 0° 239° (WSW) 5,719 11.9 -15.5°
Reaches altitude 10° 23:17:00 10° 235° (SW) 4,877 11.5 -15.8°
Maximum altitude 23:30:45 53° 165° (SSE) 2,901 10.0 -16.7°
Drops below altitude 10° 23:44:27 10° 95° (E) 4,863 11.4 -17.4°
Sets 23:48:03 0° 91° (E) 5,704 11.8 -17.6°
